Time,TemperatureF,DewpointF,PressureIn,WindDirection,WindDirectionDegrees,WindSpeedMPH,WindSpeedGustMPH,Humidity,HourlyPrecipIn,Conditions,Clouds,dailyrainin,SoftwareType,DateUTC
2013-03-08 00:00:00,32.5,30.9,30.03,North,0,0.0,0.0,94,0.00,,,0.09,meteohub,2013-03-08 05:00:00,
2013-03-08 00:03:00,32.5,30.9,30.04,NNW,341,0.0,0.0,94,0.00,,,0.09,meteohub,2013-03-08 05:03:00,
2013-03-08 00:08:00,32.5,30.9,30.04,NNE,18,0.0,0.0,94,0.00,,,0.00,meteohub,2013-03-08 05:08:00,
2013-03-08 00:13:00,32.5,30.9,30.04,NNE,17,0.0,0.0,94,0.00,,,0.00,meteohub,2013-03-08 05:13:00,
2013-03-08 00:18:00,32.5,30.9,30.04,NNE,32,0.0,0.0,94,0.00,,,0.00,meteohub,2013-03-08 05:18:00,
2013-03-08 00:23:00,32.5,30.9,30.04,North,9,0.0,0.0,94,0.00,,,0.00,meteohub,2013-03-08 05:23:00,
2013-03-08 00:28:00,32.5,30.9,30.04,NNE,28,0.0,0.0,94,0.00,,,0.00,meteohub,2013-03-08 05:28:00,
2013-03-08 00:33:00,32.5,30.9,30.04,NE,36,0.0,0.0,94,0.00,,,0.00,meteohub,2013-03-08 05:33:00,
2013-03-08 00:38:00,32.5,30.9,30.04,North,9,0.0,0.0,94,0.00,,,0.00,meteohub,2013-03-08 05:38:00,
2013-03-08 00:43:00,32.5,30.9,30.04,NNE,15,0.0,0.0,94,0.00,,,0.00,meteohub,2013-03-08 05:43:00,
2013-03-08 00:48:00,32.5,30.9,30.04,North,5,0.0,0.0,94,0.00,,,0.00,meteohub,2013-03-08 05:48:00,
2013-03-08 00:53:00,32.5,30.9,30.04,NNW,338,0.0,0.0,94,0.00,,,0.00,meteohub,2013-03-08 05:53:00,
2013-03-08 00:58:00,32.5,30.9,30.04,NE,51,0.0,0.0,94,0.00,,,0.00,meteohub,2013-03-08 05:58:00,
2013-03-08 01:03:00,32.5,30.9,30.04,NE,40,0.0,0.0,94,0.00,,,0.00,meteohub,2013-03-08 06:03:00,
2013-03-08 01:08:00,32.4,30.7,30.04,NE,40,0.0,0.0,94,0.00,,,0.00,meteohub,2013-03-08 06:08:00,
2013-03-08 01:13:00,32.5,30.9,30.04,NE,40,0.0,0.0,94,0.00,,,0.00,meteohub,2013-03-08 06:13:00,
2013-03-08 01:18:00,32.4,30.7,30.04,NE,40,0.0,0.0,94,0.00,,,0.00,meteohub,2013-03-08 06:18:00,
2013-03-08 01:23:00,32.4,30.7,30.04,North,5,0.0,0.0,94,0.00,,,0.00,meteohub,2013-03-08 06:23:00,
2013-03-08 01:28:00,32.4,30.7,30.04,NNE,13,0.0,0.0,94,0.00,,,0.00,meteohub,2013-03-08 06:28:00,
2013-03-08 01:33:00,32.4,30.7,30.03,ENE,59,0.0,0.0,94,0.00,,,0.00,meteohub,2013-03-08 06:33:00,
2013-03-08 01:38:00,32.4,30.7,30.03,NE,39,0.0,0.0,94,0.00,,,0.00,meteohub,2013-03-08 06:38:00,
2013-03-08 01:43:00,32.4,30.7,30.03,NNW,336,0.0,0.0,94,0.00,,,0.00,meteohub,2013-03-08 06:43:00,
2013-03-08 01:48:00,32.4,30.7,30.03,WNW,289,0.0,0.0,94,0.00,,,0.00,meteohub,2013-03-08 06:48:00,
2013-03-08 01:53:00,32.4,30.7,30.03,NW,307,0.0,0.0,94,0.00,,,0.00,meteohub,2013-03-08 06:53:00,
2013-03-08 01:58:00,32.4,30.7,30.03,NNE,26,0.0,0.0,94,0.00,,,0.00,meteohub,2013-03-08 06:58:00,
2013-03-08 02:03:00,32.4,30.7,30.02,North,355,0.0,0.0,94,0.00,,,0.00,meteohub,2013-03-08 07:03:00,
2013-03-08 02:08:00,32.4,30.7,30.02,NE,49,0.0,0.0,94,0.00,,,0.00,meteohub,2013-03-08 07:08:00,
2013-03-08 02:13:00,32.4,30.7,30.02,NE,43,0.0,0.0,94,0.00,,,0.00,meteohub,2013-03-08 07:13:00,
2013-03-08 02:18:00,32.4,30.7,30.02,NE,37,0.0,0.0,94,0.00,,,0.00,meteohub,2013-03-08 07:18:00,
2013-03-08 02:23:00,32.4,30.7,30.01,NE,34,0.0,0.0,94,0.00,,,0.00,meteohub,2013-03-08 07:23:00,
2013-03-08 02:28:00,32.4,30.7,30.01,NNE,28,0.0,0.0,94,0.00,,,0.00,meteohub,2013-03-08 07:28:00,
2013-03-08 02:33:00,32.2,30.6,30.01,NNE,23,0.0,0.0,94,0.00,,,0.00,meteohub,2013-03-08 07:33:00,
2013-03-08 02:38:00,32.2,30.6,30.01,NNE,15,0.0,0.0,94,0.00,,,0.00,meteohub,2013-03-08 07:38:00,
2013-03-08 02:43:00,32.2,30.6,30.01,NE,52,0.0,0.0,94,0.00,,,0.00,meteohub,2013-03-08 07:43:00,
2013-03-08 02:48:00,32.2,30.6,30.01,North,355,0.0,0.0,94,0.00,,,0.00,meteohub,2013-03-08 07:48:00,
2013-03-08 02:53:00,32.2,30.6,30.01,NNE,21,0.0,0.0,94,0.00,,,0.00,meteohub,2013-03-08 07:53:00,
2013-03-08 02:58:00,32.2,30.6,30.00,NNW,343,0.0,0.0,94,0.00,,,0.00,meteohub,2013-03-08 07:58:00,
2013-03-08 03:03:00,32.2,30.6,30.00,NE,55,0.0,0.0,94,0.00,,,0.00,meteohub,2013-03-08 08:03:00,
2013-03-08 03:08:00,32.2,30.6,30.00,North,355,0.0,0.0,94,0.00,,,0.00,meteohub,2013-03-08 08:08:00,
2013-03-08 03:13:00,32.2,30.6,30.00,NNE,24,0.0,0.0,94,0.00,,,0.00,meteohub,2013-03-08 08:13:00,
2013-03-08 03:18:00,32.2,30.6,30.00,NNE,24,0.0,0.0,94,0.00,,,0.00,meteohub,2013-03-08 08:18:00,
2013-03-08 03:23:00,32.2,30.6,30.00,NNE,29,0.0,0.0,94,0.00,,,0.00,meteohub,2013-03-08 08:23:00,
2013-03-08 03:28:00,32.2,30.6,30.00,North,350,0.0,0.0,94,0.00,,,0.00,meteohub,2013-03-08 08:28:00,
2013-03-08 03:33:00,32.2,30.6,30.00,NNE,24,0.0,0.0,94,0.00,,,0.00,meteohub,2013-03-08 08:33:00,
2013-03-08 03:38:00,32.2,30.6,30.00,NW,317,0.0,0.0,94,0.00,,,0.00,meteohub,2013-03-08 08:38:00,
2013-03-08 03:43:00,32.2,30.6,30.00,NNE,33,0.0,0.0,94,0.00,,,0.00,meteohub,2013-03-08 08:43:00,
2013-03-08 03:48:00,32.2,30.6,30.00,NNE,17,0.0,0.0,94,0.00,,,0.00,meteohub,2013-03-08 08:48:00,
2013-03-08 03:54:00,32.2,30.6,30.00,North,5,0.0,0.0,94,0.00,,,0.00,meteohub,2013-03-08 08:54:00,
2013-03-08 03:59:00,32.2,30.6,30.00,NNE,30,0.0,0.0,94,0.00,,,0.00,meteohub,2013-03-08 08:59:00,
2013-03-08 04:04:00,32.2,30.6,30.00,NE,36,0.0,0.0,94,0.00,,,0.00,meteohub,2013-03-08 09:04:00,
2013-03-08 04:09:00,32.0,30.6,30.00,North,355,0.0,0.0,94,0.00,,,0.00,meteohub,2013-03-08 09:09:00,
2013-03-08 04:14:00,32.2,30.6,29.99,NNE,29,0.0,0.0,94,0.00,,,0.00,meteohub,2013-03-08 09:14:00,
2013-03-08 04:19:00,32.0,30.6,30.00,NNE,29,0.0,0.0,94,0.00,,,0.00,meteohub,2013-03-08 09:19:00,
2013-03-08 04:24:00,32.0,30.6,30.00,NNE,29,0.0,0.0,94,0.00,,,0.00,meteohub,2013-03-08 09:24:00,
2013-03-08 04:29:00,32.0,30.6,29.99,NNE,29,0.0,0.0,94,0.00,,,0.00,meteohub,2013-03-08 09:29:00,
2013-03-08 04:34:00,32.0,30.6,29.99,NNE,29,0.0,0.0,94,0.00,,,0.00,meteohub,2013-03-08 09:34:00,
2013-03-08 04:39:00,32.0,30.6,29.99,NNE,29,0.0,0.0,94,0.00,,,0.00,meteohub,2013-03-08 09:39:00,
2013-03-08 04:44:00,32.0,30.6,29.99,NNE,29,0.0,0.0,94,0.00,,,0.00,meteohub,2013-03-08 09:44:00,
2013-03-08 04:49:00,31.8,30.4,29.99,NNE,29,0.0,0.0,94,0.00,,,0.00,meteohub,2013-03-08 09:49:00,
2013-03-08 04:54:00,31.8,30.4,29.99,NNE,29,0.0,0.0,94,0.00,,,0.00,meteohub,2013-03-08 09:54:00,
2013-03-08 04:59:00,31.8,30.4,29.99,NNE,29,0.0,0.0,94,0.00,,,0.00,meteohub,2013-03-08 09:59:00,
2013-03-08 05:04:00,31.8,30.4,29.99,NNE,29,0.0,0.0,94,0.00,,,0.00,meteohub,2013-03-08 10:04:00,
2013-03-08 05:09:00,31.8,30.4,29.99,NNE,29,0.0,0.0,94,0.00,,,0.00,meteohub,2013-03-08 10:09:00,
2013-03-08 05:14:00,31.8,30.6,29.99,NNE,13,0.0,0.0,95,0.00,,,0.00,meteohub,2013-03-08 10:14:00,
2013-03-08 05:19:00,31.8,30.6,29.99,NNE,13,0.0,0.0,95,0.00,,,0.00,meteohub,2013-03-08 10:19:00,
2013-03-08 05:24:00,31.8,30.6,29.99,NNE,13,0.0,0.0,95,0.00,,,0.00,meteohub,2013-03-08 10:24:00,
2013-03-08 05:29:00,31.8,30.6,29.99,NNE,13,0.0,0.0,95,0.00,,,0.00,meteohub,2013-03-08 10:29:00,
2013-03-08 05:34:00,31.8,30.6,29.99,NNE,13,0.0,0.0,95,0.00,,,0.00,meteohub,2013-03-08 10:34:00,
2013-03-08 05:39:00,31.8,30.6,29.99,NNE,13,0.0,0.0,95,0.00,,,0.00,meteohub,2013-03-08 10:39:00,
2013-03-08 05:44:00,31.6,30.2,29.99,NNE,13,0.0,0.0,94,0.00,,,0.00,meteohub,2013-03-08 10:44:00,
2013-03-08 05:49:00,31.6,30.2,29.99,NNE,13,0.0,0.0,94,0.00,,,0.00,meteohub,2013-03-08 10:49:00,
2013-03-08 05:54:00,31.6,30.2,29.99,NNE,13,0.0,0.0,94,0.00,,,0.00,meteohub,2013-03-08 10:54:00,
2013-03-08 05:59:00,31.5,30.0,29.98,NNE,13,0.0,0.0,94,0.00,,,0.00,meteohub,2013-03-08 10:59:00,
2013-03-08 06:04:00,31.5,30.0,29.98,NNE,13,0.0,0.0,94,0.00,,,0.00,meteohub,2013-03-08 11:04:00,
2013-03-08 06:09:00,31.3,29.8,29.99,NNE,13,0.0,0.0,94,0.00,,,0.00,meteohub,2013-03-08 11:09:00,
2013-03-08 06:14:00,31.3,29.8,29.99,NNE,13,0.0,0.0,94,0.00,,,0.00,meteohub,2013-03-08 11:14:00,
2013-03-08 06:19:00,31.3,29.8,29.99,NNE,13,0.0,0.0,94,0.00,,,0.00,meteohub,2013-03-08 11:19:00,
2013-03-08 06:24:00,31.3,29.8,29.99,NNE,13,0.0,0.0,94,0.00,,,0.00,meteohub,2013-03-08 11:24:00,
2013-03-08 06:29:00,31.3,29.8,29.99,NNE,13,0.0,0.0,94,0.00,,,0.00,meteohub,2013-03-08 11:29:00,
2013-03-08 06:34:00,31.3,29.8,29.99,NNE,13,0.0,0.0,94,0.00,,,0.00,meteohub,2013-03-08 11:34:00,
2013-03-08 06:39:00,31.3,29.8,29.99,NNE,13,0.0,0.0,94,0.00,,,0.00,meteohub,2013-03-08 11:39:00,
2013-03-08 06:44:00,31.3,29.8,29.99,NNE,13,0.0,0.0,94,0.00,,,0.00,meteohub,2013-03-08 11:44:00,
2013-03-08 06:49:00,31.3,30.0,29.99,NNE,13,0.0,0.0,95,0.00,,,0.00,meteohub,2013-03-08 11:49:00,
2013-03-08 06:54:00,31.3,29.8,29.99,NNE,13,0.0,0.0,94,0.00,,,0.00,meteohub,2013-03-08 11:54:00,
2013-03-08 06:59:00,31.3,29.8,29.99,NNE,13,0.0,0.0,94,0.00,,,0.00,meteohub,2013-03-08 11:59:00,
2013-03-08 07:04:00,31.3,30.0,30.00,NNE,13,0.0,0.0,95,0.00,,,0.00,meteohub,2013-03-08 12:04:00,
2013-03-08 07:09:00,31.3,30.0,30.00,NNE,13,0.0,0.0,95,0.00,,,0.00,meteohub,2013-03-08 12:09:00,
2013-03-08 07:14:00,31.3,30.0,30.00,NNE,13,0.0,0.0,95,0.00,,,0.00,meteohub,2013-03-08 12:14:00,
2013-03-08 07:19:00,31.3,30.0,30.00,NNE,13,0.0,0.0,95,0.00,,,0.00,meteohub,2013-03-08 12:19:00,
2013-03-08 07:24:00,31.5,30.2,30.00,NNE,13,0.0,0.0,95,0.00,,,0.00,meteohub,2013-03-08 12:24:00,
2013-03-08 07:29:00,31.5,30.2,30.00,NNE,13,0.0,0.0,95,0.00,,,0.00,meteohub,2013-03-08 12:29:00,
2013-03-08 07:34:00,31.5,30.2,30.00,NNE,13,0.0,0.0,95,0.00,,,0.00,meteohub,2013-03-08 12:34:00,
2013-03-08 07:39:00,31.5,30.2,30.00,NNE,13,0.0,0.0,95,0.00,,,0.00,meteohub,2013-03-08 12:39:00,
2013-03-08 07:44:00,31.5,30.0,30.00,NNE,13,0.0,0.0,94,0.00,,,0.00,meteohub,2013-03-08 12:44:00,
2013-03-08 07:49:00,31.6,30.2,30.01,NNE,13,0.0,0.0,94,0.00,,,0.00,meteohub,2013-03-08 12:49:00,
2013-03-08 07:54:00,31.6,30.2,30.01,NNE,13,0.0,0.0,94,0.00,,,0.00,meteohub,2013-03-08 12:54:00,
2013-03-08 07:59:00,31.6,30.2,30.01,NNE,13,0.0,0.0,94,0.00,,,0.00,meteohub,2013-03-08 12:59:00,
2013-03-08 08:04:00,31.8,30.4,30.01,NNE,13,0.0,0.0,94,0.00,,,0.00,meteohub,2013-03-08 13:04:00,
2013-03-08 08:09:00,31.8,30.6,30.01,NNE,13,0.0,0.0,95,0.00,,,0.00,meteohub,2013-03-08 13:09:00,
2013-03-08 08:14:00,31.8,30.6,30.01,NNE,13,0.0,0.0,95,0.00,,,0.00,meteohub,2013-03-08 13:14:00,
2013-03-08 08:19:00,31.8,30.6,30.01,NNE,13,0.0,0.0,95,0.00,,,0.00,meteohub,2013-03-08 13:19:00,
2013-03-08 08:24:00,31.8,30.6,30.01,NNE,13,0.0,0.0,95,0.00,,,0.00,meteohub,2013-03-08 13:24:00,
2013-03-08 08:29:00,32.0,30.7,30.01,NNE,13,0.0,0.0,95,0.00,,,0.00,meteohub,2013-03-08 13:29:00,
2013-03-08 08:34:00,32.0,30.6,30.01,NNE,13,0.0,0.0,94,0.00,,,0.00,meteohub,2013-03-08 13:34:00,
2013-03-08 08:39:00,32.2,30.6,30.01,NNE,13,0.0,0.0,94,0.00,,,0.00,meteohub,2013-03-08 13:39:00,
2013-03-08 08:44:00,32.0,30.6,30.01,NNE,13,0.0,0.0,94,0.00,,,0.00,meteohub,2013-03-08 13:44:00,
2013-03-08 08:49:00,32.2,30.6,30.01,NNE,13,0.0,0.0,94,0.00,,,0.00,meteohub,2013-03-08 13:49:00,
2013-03-08 08:54:00,32.2,30.6,30.01,NNE,13,0.0,0.0,94,0.00,,,0.00,meteohub,2013-03-08 13:54:00,
2013-03-08 08:59:00,32.4,30.7,30.01,NNE,12,0.0,0.0,94,0.00,,,0.00,meteohub,2013-03-08 13:59:00,
2013-03-08 09:04:00,32.4,30.7,30.01,North,11,0.0,0.0,94,0.00,,,0.00,meteohub,2013-03-08 14:04:00,
2013-03-08 09:09:00,32.4,30.7,30.01,East,82,0.0,0.0,94,0.00,,,0.00,meteohub,2013-03-08 14:09:00,
2013-03-08 09:14:00,32.5,30.9,30.01,ENE,73,0.0,1.0,94,0.00,,,0.00,meteohub,2013-03-08 14:14:00,
2013-03-08 09:19:00,32.7,31.1,30.01,North,5,0.0,1.0,94,0.00,,,0.00,meteohub,2013-03-08 14:19:00,
2013-03-08 09:24:00,32.9,31.6,30.01,North,0,0.0,1.0,95,0.00,,,0.00,meteohub,2013-03-08 14:24:00,
2013-03-08 09:29:00,33.1,31.5,30.01,NNE,17,0.0,0.0,94,0.00,,,0.00,meteohub,2013-03-08 14:29:00,
2013-03-08 09:34:00,33.3,31.6,30.01,North,355,5.0,0.0,94,0.00,,,0.00,meteohub,2013-03-08 14:34:00,
2013-03-08 09:40:00,33.3,31.6,30.02,WNW,288,3.0,4.0,94,0.00,,,0.00,meteohub,2013-03-08 14:40:00,
2013-03-08 09:45:00,33.4,31.6,30.01,NNW,334,3.0,10.0,93,0.00,,,0.00,meteohub,2013-03-08 14:45:00,
2013-03-08 09:50:00,33.4,31.6,30.01,NE,45,2.0,10.0,93,0.00,,,0.00,meteohub,2013-03-08 14:50:00,
2013-03-08 09:55:00,33.6,31.8,30.01,NE,49,2.0,11.0,93,0.00,,,0.00,meteohub,2013-03-08 14:55:00,
2013-03-08 10:00:00,33.6,31.8,30.01,NW,308,1.0,11.0,93,0.00,,,0.00,meteohub,2013-03-08 15:00:00,
2013-03-08 10:05:00,33.8,31.6,30.01,ENE,61,2.0,11.0,92,0.01,,,0.01,meteohub,2013-03-08 15:05:00,
2013-03-08 10:10:00,34.0,31.8,30.01,NNW,333,8.0,11.0,92,0.01,,,0.01,meteohub,2013-03-08 15:10:00,
2013-03-08 10:15:00,34.0,31.8,30.01,NNE,18,3.0,11.0,92,0.01,,,0.01,meteohub,2013-03-08 15:15:00,
2013-03-08 10:20:00,34.2,32.0,30.01,NNW,348,3.0,9.0,92,0.01,,,0.01,meteohub,2013-03-08 15:20:00,
2013-03-08 10:25:00,34.2,31.8,30.01,NNE,25,6.0,8.0,91,0.01,,,0.01,meteohub,2013-03-08 15:25:00,
2013-03-08 10:30:00,34.2,31.8,30.01,NE,47,4.0,11.0,91,0.01,,,0.01,meteohub,2013-03-08 15:30:00,
2013-03-08 10:35:00,34.3,32.0,30.02,North,351,4.0,11.0,91,0.01,,,0.01,meteohub,2013-03-08 15:35:00,
2013-03-08 10:40:00,34.3,32.0,30.02,NE,44,5.0,11.0,91,0.01,,,0.01,meteohub,2013-03-08 15:40:00,
2013-03-08 10:45:00,34.2,31.8,30.02,NE,46,3.0,10.0,91,0.01,,,0.01,meteohub,2013-03-08 15:45:00,
2013-03-08 10:50:00,34.2,32.0,30.02,ENE,59,9.0,13.0,92,0.01,,,0.01,meteohub,2013-03-08 15:50:00,
2013-03-08 10:55:00,34.0,31.8,30.03,NE,38,2.0,13.0,92,0.01,,,0.01,meteohub,2013-03-08 15:55:00,
2013-03-08 11:00:00,34.0,31.8,30.03,NE,46,3.0,15.0,92,0.01,,,0.01,meteohub,2013-03-08 16:00:00,
2013-03-08 11:05:00,33.8,32.0,30.03,NE,46,3.0,15.0,93,0.00,,,0.01,meteohub,2013-03-08 16:05:00,
2013-03-08 11:10:00,33.6,31.8,30.03,North,355,2.0,12.0,93,0.00,,,0.01,meteohub,2013-03-08 16:10:00,
2013-03-08 11:15:00,33.6,31.8,30.03,North,355,6.0,9.0,93,0.00,,,0.01,meteohub,2013-03-08 16:15:00,
2013-03-08 11:20:00,33.8,32.0,30.03,NNE,14,3.0,9.0,93,0.00,,,0.01,meteohub,2013-03-08 16:20:00,
2013-03-08 11:25:00,34.0,32.2,30.03,NNE,26,5.0,9.0,93,0.00,,,0.01,meteohub,2013-03-08 16:25:00,
2013-03-08 11:30:00,34.0,32.2,30.03,NE,54,6.0,11.0,93,0.01,,,0.02,meteohub,2013-03-08 16:30:00,
2013-03-08 11:35:00,34.2,32.4,30.02,NNE,28,5.0,11.0,93,0.01,,,0.02,meteohub,2013-03-08 16:35:00,
2013-03-08 11:40:00,34.2,32.4,30.03,NNE,24,6.0,13.0,93,0.01,,,0.02,meteohub,2013-03-08 16:40:00,
2013-03-08 11:45:00,34.2,32.0,30.03,North,11,4.0,13.0,92,0.02,,,0.03,meteohub,2013-03-08 16:45:00,
2013-03-08 11:50:00,34.3,32.2,30.03,NE,43,8.0,13.0,92,0.02,,,0.03,meteohub,2013-03-08 16:50:00,
2013-03-08 11:55:00,34.3,32.2,30.03,NE,36,5.0,13.0,92,0.03,,,0.04,meteohub,2013-03-08 16:55:00,
2013-03-08 12:00:00,34.5,32.4,30.03,NE,45,4.0,12.0,92,0.04,,,0.05,meteohub,2013-03-08 17:00:00,
2013-03-08 12:05:00,34.5,32.4,30.04,NNW,347,5.0,11.0,92,0.04,,,0.05,meteohub,2013-03-08 17:05:00,
2013-03-08 12:10:00,34.5,32.4,30.03,NNE,30,4.0,11.0,92,0.05,,,0.06,meteohub,2013-03-08 17:10:00,
2013-03-08 12:15:00,34.5,32.4,30.04,East,79,8.0,13.0,92,0.06,,,0.07,meteohub,2013-03-08 17:15:00,
2013-03-08 12:20:00,34.9,32.5,30.04,NE,51,5.0,13.0,91,0.06,,,0.07,meteohub,2013-03-08 17:20:00,
2013-03-08 12:25:00,34.9,32.5,30.04,NNE,13,3.0,14.0,91,0.06,,,0.08,meteohub,2013-03-08 17:25:00,
2013-03-08 12:30:00,35.1,32.7,30.03,NE,55,8.0,14.0,91,0.07,,,0.09,meteohub,2013-03-08 17:30:00,
2013-03-08 12:35:00,35.1,32.7,30.03,NE,52,1.0,9.0,91,0.07,,,0.09,meteohub,2013-03-08 17:35:00,
2013-03-08 12:40:00,35.1,32.7,30.03,NNW,332,2.0,11.0,91,0.07,,,0.10,meteohub,2013-03-08 17:40:00,
2013-03-08 12:45:00,35.1,32.7,30.03,NNE,24,4.0,11.0,91,0.08,,,0.11,meteohub,2013-03-08 17:45:00,
2013-03-08 12:50:00,35.1,32.7,30.02,North,5,5.0,12.0,91,0.07,,,0.11,meteohub,2013-03-08 17:50:00,
2013-03-08 12:55:00,35.2,32.4,30.02,NNE,32,5.0,14.0,89,0.08,,,0.12,meteohub,2013-03-08 17:55:00,
2013-03-08 13:00:00,35.2,32.5,30.03,NE,44,6.0,14.0,90,0.08,,,0.13,meteohub,2013-03-08 18:00:00,
2013-03-08 13:05:00,35.2,32.4,30.03,NNE,15,7.0,14.0,89,0.07,,,0.13,meteohub,2013-03-08 18:05:00,
2013-03-08 13:10:00,35.4,32.5,30.03,NNE,15,3.0,14.0,89,0.07,,,0.13,meteohub,2013-03-08 18:10:00,
2013-03-08 13:15:00,35.4,32.5,30.03,NE,51,4.0,14.0,89,0.07,,,0.14,meteohub,2013-03-08 18:15:00,
2013-03-08 13:20:00,35.4,32.5,30.03,NNW,342,2.0,14.0,89,0.07,,,0.15,meteohub,2013-03-08 18:20:00,
2013-03-08 13:25:00,35.6,32.4,30.03,North,0,3.0,11.0,88,0.08,,,0.16,meteohub,2013-03-08 18:25:00,
2013-03-08 13:31:00,36.0,32.5,30.02,NE,49,6.0,16.0,87,0.08,,,0.17,meteohub,2013-03-08 18:31:00,
2013-03-08 13:36:00,36.1,32.9,30.03,NE,51,6.0,17.0,88,0.07,,,0.17,meteohub,2013-03-08 18:36:00,
2013-03-08 13:41:00,36.5,32.7,30.02,NNW,336,2.0,17.0,86,0.08,,,0.18,meteohub,2013-03-08 18:41:00,
2013-03-08 13:46:00,36.9,33.1,30.03,NNE,19,6.0,17.0,86,0.08,,,0.19,meteohub,2013-03-08 18:46:00,
2013-03-08 13:51:00,37.0,32.9,30.03,NNW,335,0.0,10.0,85,0.08,,,0.19,meteohub,2013-03-08 18:51:00,
2013-03-08 13:56:00,37.4,33.1,30.03,NE,40,5.0,9.0,84,0.08,,,0.20,meteohub,2013-03-08 18:56:00,
2013-03-08 14:01:00,37.8,32.7,30.03,NNE,26,5.0,18.0,82,0.08,,,0.21,meteohub,2013-03-08 19:01:00,
2013-03-08 14:06:00,37.9,32.4,30.02,WNW,298,3.0,18.0,80,0.09,,,0.22,meteohub,2013-03-08 19:06:00,
2013-03-08 14:11:00,38.3,32.4,30.04,NE,48,6.0,18.0,79,0.09,,,0.23,meteohub,2013-03-08 19:11:00,
2013-03-08 14:16:00,38.7,32.4,30.03,NE,48,2.0,10.0,78,0.09,,,0.23,meteohub,2013-03-08 19:16:00,
2013-03-08 14:21:00,38.8,32.2,30.04,North,355,5.0,10.0,77,0.10,,,0.25,meteohub,2013-03-08 19:21:00,
2013-03-08 14:26:00,39.0,32.2,30.04,North,0,6.0,12.0,76,0.09,,,0.25,meteohub,2013-03-08 19:26:00,
2013-03-08 14:31:00,39.2,31.6,30.04,NE,47,10.0,12.0,74,0.09,,,0.26,meteohub,2013-03-08 19:31:00,
2013-03-08 14:36:00,39.6,32.0,30.04,North,5,2.0,13.0,74,0.10,,,0.27,meteohub,2013-03-08 19:36:00,
2013-03-08 14:41:00,39.7,31.8,30.04,NNW,342,5.0,15.0,73,0.10,,,0.28,meteohub,2013-03-08 19:41:00,
2013-03-08 14:46:00,39.9,30.6,30.05,NE,34,4.0,15.0,69,0.10,,,0.29,meteohub,2013-03-08 19:46:00,
2013-03-08 14:51:00,40.1,30.7,30.05,NE,47,5.0,19.0,69,0.09,,,0.29,meteohub,2013-03-08 19:51:00,
2013-03-08 14:56:00,40.1,30.4,30.05,NNW,330,6.0,19.0,68,0.10,,,0.31,meteohub,2013-03-08 19:56:00,
2013-03-08 15:01:00,40.1,30.4,30.05,NNW,333,4.0,16.0,68,0.10,,,0.31,meteohub,2013-03-08 20:01:00,
2013-03-08 15:06:00,40.3,30.2,30.05,NNE,13,2.0,16.0,67,0.10,,,0.32,meteohub,2013-03-08 20:06:00,
2013-03-08 15:11:00,40.5,30.4,30.06,West,276,4.0,16.0,67,0.10,,,0.33,meteohub,2013-03-08 20:11:00,
2013-03-08 15:16:00,40.5,29.7,30.06,North,355,7.0,16.0,65,0.09,,,0.33,meteohub,2013-03-08 20:16:00,
2013-03-08 15:21:00,40.6,29.8,30.06,North,0,3.0,13.0,65,0.09,,,0.34,meteohub,2013-03-08 20:21:00,
2013-03-08 15:26:00,40.6,29.5,30.06,ENE,67,4.0,15.0,64,0.09,,,0.35,meteohub,2013-03-08 20:26:00,
2013-03-08 15:31:00,40.8,29.7,30.06,NNW,348,4.0,15.0,64,0.08,,,0.35,meteohub,2013-03-08 20:31:00,
2013-03-08 15:36:00,40.8,28.4,30.06,NE,53,3.0,15.0,61,0.09,,,0.36,meteohub,2013-03-08 20:36:00,
2013-03-08 15:41:00,41.0,29.3,30.04,North,11,2.0,16.0,63,0.09,,,0.37,meteohub,2013-03-08 20:41:00,
2013-03-08 15:46:00,41.2,28.8,30.05,NE,39,10.0,16.0,61,0.08,,,0.37,meteohub,2013-03-08 20:46:00,
2013-03-08 15:51:00,41.4,28.9,30.06,North,11,4.0,14.0,61,0.07,,,0.37,meteohub,2013-03-08 20:51:00,
2013-03-08 15:56:00,41.4,28.6,30.06,ENE,61,3.0,14.0,60,0.07,,,0.38,meteohub,2013-03-08 20:56:00,
2013-03-08 16:01:00,41.5,28.8,30.07,NNW,348,3.0,14.0,60,0.07,,,0.39,meteohub,2013-03-08 21:01:00,
2013-03-08 16:06:00,41.5,28.8,30.07,North,355,2.0,14.0,60,0.07,,,0.39,meteohub,2013-03-08 21:06:00,
2013-03-08 16:11:00,41.5,27.9,30.07,ENE,70,3.0,14.0,58,0.06,,,0.39,meteohub,2013-03-08 21:11:00,
2013-03-08 16:16:00,41.5,27.5,30.07,NE,53,6.0,14.0,57,0.07,,,0.40,meteohub,2013-03-08 21:16:00,
2013-03-08 16:21:00,41.5,27.9,30.08,NNE,28,3.0,14.0,58,0.06,,,0.40,meteohub,2013-03-08 21:21:00,
2013-03-08 16:26:00,41.5,27.9,30.08,NNE,13,5.0,13.0,58,0.06,,,0.41,meteohub,2013-03-08 21:26:00,
2013-03-08 16:31:00,41.7,27.7,30.08,NNW,342,2.0,13.0,57,0.06,,,0.41,meteohub,2013-03-08 21:31:00,
2013-03-08 16:36:00,41.7,27.7,30.09,NE,53,4.0,11.0,57,0.05,,,0.41,meteohub,2013-03-08 21:36:00,
2013-03-08 16:41:00,41.7,27.1,30.09,NNE,28,2.0,11.0,56,0.04,,,0.41,meteohub,2013-03-08 21:41:00,
2013-03-08 16:46:00,41.7,27.1,30.09,NE,34,3.0,11.0,56,0.05,,,0.42,meteohub,2013-03-08 21:46:00,
2013-03-08 16:51:00,41.7,27.1,30.09,NE,51,5.0,10.0,56,0.04,,,0.42,meteohub,2013-03-08 21:51:00,
2013-03-08 16:56:00,41.7,27.1,30.10,NNW,340,0.0,10.0,56,0.05,,,0.43,meteohub,2013-03-08 21:56:00,
2013-03-08 17:01:00,41.7,27.1,30.10,ENE,67,5.0,10.0,56,0.04,,,0.43,meteohub,2013-03-08 22:01:00,
2013-03-08 17:06:00,41.7,27.1,30.10,NNE,12,5.0,13.0,56,0.04,,,0.43,meteohub,2013-03-08 22:06:00,
2013-03-08 17:11:00,41.9,27.0,30.10,NE,38,2.0,13.0,55,0.04,,,0.43,meteohub,2013-03-08 22:11:00,
2013-03-08 17:16:00,41.7,27.7,30.10,NNE,12,3.0,13.0,57,0.03,,,0.43,meteohub,2013-03-08 22:16:00,
2013-03-08 17:21:00,41.5,27.5,30.10,North,5,4.0,11.0,57,0.04,,,0.44,meteohub,2013-03-08 22:21:00,
2013-03-08 17:26:00,41.7,27.1,30.11,NNW,346,4.0,7.0,56,0.03,,,0.44,meteohub,2013-03-08 22:26:00,
2013-03-08 17:31:00,41.7,27.1,30.11,NNW,342,0.0,8.0,56,0.03,,,0.44,meteohub,2013-03-08 22:31:00,
2013-03-08 17:36:00,41.5,27.5,30.11,North,349,7.0,8.0,57,0.04,,,0.45,meteohub,2013-03-08 22:36:00,
2013-03-08 17:41:00,41.5,27.9,30.11,North,11,3.0,9.0,58,0.03,,,0.45,meteohub,2013-03-08 22:41:00,
2013-03-08 17:46:00,41.5,27.5,30.12,ENE,78,5.0,9.0,57,0.03,,,0.45,meteohub,2013-03-08 22:46:00,
2013-03-08 17:51:00,41.7,27.1,30.12,North,5,3.0,9.0,56,0.03,,,0.45,meteohub,2013-03-08 22:51:00,
2013-03-08 17:56:00,41.7,27.7,30.12,NE,40,5.0,9.0,57,0.02,,,0.45,meteohub,2013-03-08 22:56:00,
2013-03-08 18:01:00,41.7,27.7,30.12,NNE,12,2.0,9.0,57,0.02,,,0.45,meteohub,2013-03-08 23:01:00,
2013-03-08 18:06:00,41.9,27.3,30.13,NNW,329,5.0,10.0,56,0.02,,,0.45,meteohub,2013-03-08 23:06:00,
2013-03-08 18:11:00,42.1,27.5,30.13,NNW,340,4.0,10.0,56,0.03,,,0.46,meteohub,2013-03-08 23:11:00,
2013-03-08 18:16:00,41.9,27.0,30.13,North,351,2.0,10.0,55,0.03,,,0.46,meteohub,2013-03-08 23:16:00,
2013-03-08 18:21:00,41.7,27.1,30.14,NE,43,2.0,9.0,56,0.02,,,0.46,meteohub,2013-03-08 23:21:00,
2013-03-08 18:26:00,41.7,27.7,30.14,NNW,347,0.0,9.0,57,0.02,,,0.46,meteohub,2013-03-08 23:26:00,
2013-03-08 18:31:00,41.5,29.5,30.14,North,9,0.0,9.0,62,0.02,,,0.46,meteohub,2013-03-08 23:31:00,
2013-03-08 18:36:00,40.8,30.0,30.14,NNW,329,0.0,6.0,65,0.01,,,0.46,meteohub,2013-03-08 23:36:00,
2013-03-08 18:41:00,40.5,30.4,30.15,NNW,343,3.0,4.0,67,0.02,,,0.47,meteohub,2013-03-08 23:41:00,
2013-03-08 18:46:00,39.9,30.2,30.15,North,0,4.0,4.0,68,0.02,,,0.47,meteohub,2013-03-08 23:46:00,
2013-03-08 18:51:00,39.6,30.2,30.15,North,355,1.0,4.0,69,0.02,,,0.47,meteohub,2013-03-08 23:51:00,
2013-03-08 18:56:00,39.2,30.2,30.15,NW,311,0.0,4.0,70,0.02,,,0.47,meteohub,2013-03-08 23:56:00,
2013-03-08 19:01:00,39.0,30.4,30.16,NNW,329,2.0,5.0,71,0.02,,,0.47,meteohub,2013-03-09 00:01:00,
2013-03-08 19:06:00,38.8,30.2,30.16,WNW,298,2.0,5.0,71,0.02,,,0.47,meteohub,2013-03-09 00:06:00,
2013-03-08 19:12:00,38.7,30.0,30.16,NNW,338,0.0,9.0,71,0.01,,,0.47,meteohub,2013-03-09 00:12:00,
2013-03-08 19:17:00,38.5,30.2,30.17,NNW,339,2.0,9.0,72,0.01,,,0.47,meteohub,2013-03-09 00:17:00,
2013-03-08 19:22:00,38.3,30.0,30.17,North,355,0.0,9.0,72,0.01,,,0.47,meteohub,2013-03-09 00:22:00,
2013-03-08 19:27:00,38.1,29.8,30.17,NW,309,2.0,8.0,72,0.01,,,0.47,meteohub,2013-03-09 00:27:00,
2013-03-08 19:32:00,37.9,29.7,30.17,NNW,327,2.0,5.0,72,0.01,,,0.47,meteohub,2013-03-09 00:32:00,
2013-03-08 19:37:00,37.9,29.7,30.17,NNE,12,2.0,6.0,72,0.00,,,0.47,meteohub,2013-03-09 00:37:00,
2013-03-08 19:42:00,37.9,29.7,30.17,NW,312,2.0,8.0,72,0.00,,,0.47,meteohub,2013-03-09 00:42:00,
2013-03-08 19:47:00,37.9,29.7,30.17,WNW,289,1.0,8.0,72,0.00,,,0.47,meteohub,2013-03-09 00:47:00,
2013-03-08 19:52:00,37.9,29.7,30.17,NNW,333,3.0,7.0,72,0.00,,,0.47,meteohub,2013-03-09 00:52:00,
2013-03-08 19:57:00,37.8,29.8,30.17,North,355,2.0,6.0,73,0.00,,,0.47,meteohub,2013-03-09 00:57:00,
2013-03-08 20:02:00,37.8,29.8,30.17,NNW,348,2.0,5.0,73,0.00,,,0.47,meteohub,2013-03-09 01:02:00,
2013-03-08 20:07:00,37.8,29.5,30.17,NNW,344,3.0,6.0,72,0.00,,,0.47,meteohub,2013-03-09 01:07:00,
2013-03-08 20:12:00,37.6,29.3,30.18,NNW,330,1.0,11.0,72,0.00,,,0.47,meteohub,2013-03-09 01:12:00,
2013-03-08 20:17:00,37.6,29.3,30.18,NNW,334,2.0,11.0,72,0.00,,,0.47,meteohub,2013-03-09 01:17:00,
2013-03-08 20:22:00,37.6,29.7,30.18,NNW,331,2.0,11.0,73,0.00,,,0.47,meteohub,2013-03-09 01:22:00,
2013-03-08 20:27:00,37.6,29.7,30.18,North,5,3.0,6.0,73,0.01,,,0.48,meteohub,2013-03-09 01:27:00,
2013-03-08 20:32:00,37.4,29.1,30.18,WNW,299,1.0,6.0,72,0.01,,,0.48,meteohub,2013-03-09 01:32:00,
2013-03-08 20:37:00,37.4,29.1,30.18,NW,319,1.0,6.0,72,0.01,,,0.48,meteohub,2013-03-09 01:37:00,
2013-03-08 20:42:00,37.2,29.3,30.18,NNW,330,3.0,6.0,73,0.01,,,0.48,meteohub,2013-03-09 01:42:00,
2013-03-08 20:47:00,37.0,29.1,30.18,NNW,342,2.0,6.0,73,0.01,,,0.48,meteohub,2013-03-09 01:47:00,
2013-03-08 20:52:00,37.0,29.1,30.18,NW,304,0.0,5.0,73,0.01,,,0.48,meteohub,2013-03-09 01:52:00,
2013-03-08 20:57:00,37.0,29.1,30.18,NW,312,1.0,5.0,73,0.01,,,0.48,meteohub,2013-03-09 01:57:00,
2013-03-08 21:02:00,36.9,28.9,30.19,NNW,329,1.0,5.0,73,0.01,,,0.48,meteohub,2013-03-09 02:02:00,
2013-03-08 21:07:00,36.9,28.9,30.19,NNW,330,0.0,5.0,73,0.01,,,0.48,meteohub,2013-03-09 02:07:00,
2013-03-08 21:12:00,36.9,28.9,30.19,NW,311,0.0,5.0,73,0.01,,,0.48,meteohub,2013-03-09 02:12:00,
2013-03-08 21:17:00,36.7,28.8,30.19,WNW,303,0.0,3.0,73,0.01,,,0.48,meteohub,2013-03-09 02:17:00,
2013-03-08 21:22:00,36.5,28.8,30.19,NW,316,1.0,3.0,73,0.01,,,0.48,meteohub,2013-03-09 02:22:00,
2013-03-08 21:27:00,36.3,28.6,30.19,WNW,292,0.0,3.0,73,0.00,,,0.48,meteohub,2013-03-09 02:27:00,
2013-03-08 21:31:00,36.3,28.6,30.19,East,93,1.0,3.0,73,0.00,,,0.48,meteohub,2013-03-09 02:31:00,
2013-03-08 21:36:00,36.3,28.6,30.19,NW,318,0.0,6.0,73,0.00,,,0.48,meteohub,2013-03-09 02:36:00,
2013-03-08 21:41:00,36.3,28.2,30.19,WNW,300,1.0,6.0,72,0.00,,,0.48,meteohub,2013-03-09 02:41:00,
2013-03-08 21:46:00,36.3,28.2,30.19,NNW,333,0.0,6.0,72,0.00,,,0.48,meteohub,2013-03-09 02:46:00,
2013-03-08 21:51:00,36.3,28.2,30.19,NW,312,0.0,3.0,72,0.00,,,0.48,meteohub,2013-03-09 02:51:00,
2013-03-08 21:56:00,36.3,28.2,30.19,WNW,300,2.0,3.0,72,0.00,,,0.48,meteohub,2013-03-09 02:56:00,
2013-03-08 22:01:00,36.3,28.2,30.19,WNW,303,2.0,3.0,72,0.00,,,0.48,meteohub,2013-03-09 03:01:00,
2013-03-08 22:06:00,36.3,27.9,30.19,North,355,4.0,5.0,71,0.00,,,0.48,meteohub,2013-03-09 03:06:00,
2013-03-08 22:11:00,36.3,27.9,30.19,NNW,346,2.0,5.0,71,0.00,,,0.48,meteohub,2013-03-09 03:11:00,
2013-03-08 22:17:00,36.3,27.9,30.20,NW,309,0.0,5.0,71,0.00,,,0.48,meteohub,2013-03-09 03:17:00,
2013-03-08 22:22:00,36.3,27.9,30.19,North,355,2.0,5.0,71,0.00,,,0.48,meteohub,2013-03-09 03:22:00,
2013-03-08 22:27:00,36.3,27.9,30.20,NNW,329,3.0,7.0,71,0.00,,,0.48,meteohub,2013-03-09 03:27:00,
2013-03-08 22:32:00,36.3,27.9,30.20,NW,316,3.0,7.0,71,0.00,,,0.48,meteohub,2013-03-09 03:32:00,
2013-03-08 22:37:00,36.3,27.9,30.20,NW,326,1.0,7.0,71,0.00,,,0.48,meteohub,2013-03-09 03:37:00,
2013-03-08 22:42:00,36.1,27.7,30.20,NW,325,1.0,4.0,71,0.00,,,0.48,meteohub,2013-03-09 03:42:00,
2013-03-08 22:47:00,36.1,27.7,30.20,NW,320,2.0,4.0,71,0.00,,,0.48,meteohub,2013-03-09 03:47:00,
2013-03-08 22:52:00,36.0,27.5,30.20,NNW,332,0.0,5.0,71,0.00,,,0.48,meteohub,2013-03-09 03:52:00,
2013-03-08 22:57:00,36.0,27.9,30.20,NNW,331,1.0,5.0,72,0.00,,,0.48,meteohub,2013-03-09 03:57:00,
2013-03-08 23:02:00,35.8,27.7,30.20,WNW,302,0.0,5.0,72,0.00,,,0.48,meteohub,2013-03-09 04:02:00,
2013-03-08 23:07:00,35.6,27.5,30.20,NNW,336,0.0,5.0,72,0.00,,,0.48,meteohub,2013-03-09 04:07:00,
2013-03-08 23:12:00,35.4,27.3,30.20,North,355,2.0,4.0,72,0.00,,,0.48,meteohub,2013-03-09 04:12:00,
2013-03-08 23:17:00,35.4,27.3,30.20,NW,325,0.0,5.0,72,0.00,,,0.48,meteohub,2013-03-09 04:17:00,
2013-03-08 23:22:00,35.4,27.3,30.20,NNW,333,2.0,6.0,72,0.00,,,0.48,meteohub,2013-03-09 04:22:00,
2013-03-08 23:27:00,35.4,27.3,30.20,NNW,336,2.0,6.0,72,0.00,,,0.48,meteohub,2013-03-09 04:27:00,
2013-03-08 23:32:00,35.4,27.3,30.20,NW,321,1.0,6.0,72,0.00,,,0.48,meteohub,2013-03-09 04:32:00,
2013-03-08 23:37:00,35.2,27.1,30.20,NNW,329,0.0,6.0,72,0.00,,,0.48,meteohub,2013-03-09 04:37:00,
2013-03-08 23:42:00,35.2,27.1,30.20,NW,318,0.0,6.0,72,0.00,,,0.48,meteohub,2013-03-09 04:42:00,
2013-03-08 23:47:00,35.1,27.0,30.20,WNW,290,0.0,6.0,72,0.00,,,0.48,meteohub,2013-03-09 04:47:00,
2013-03-08 23:52:00,35.1,27.0,30.20,North,0,2.0,5.0,72,0.00,,,0.48,meteohub,2013-03-09 04:52:00,
2013-03-08 23:57:00,35.1,27.0,30.20,NW,317,2.0,6.0,72,0.00,,,0.48,meteohub,2013-03-09 04:57:00,